Time,TemperatureF,DewpointF,PressureIn,WindDirection,WindDirectionDegrees,WindSpeedMPH,WindSpeedGustMPH,Humidity,HourlyPrecipIn,Conditions,Clouds,dailyrainin,SoftwareType,DateUTC
2012-07-27 06:55:00,56.1,49.3,29.85,South,180,1.0,4.0,78,0.00,,---,0.00,VWS V14.01,2012-07-27 12:55:00,
2012-07-27 07:06:00,54.7,48.7,29.93,South,179,0.0,1.0,80,0.00,,---,0.00,VWS V14.01,2012-07-27 13:06:00,
2012-07-27 07:11:00,54.5,49.1,29.93,South,179,1.0,4.0,82,0.00,,---,0.00,VWS V14.01,2012-07-27 13:11:00,
2012-07-27 07:16:00,54.8,49.4,29.94,South,179,0.0,5.0,82,0.00,,---,0.00,VWS V14.01,2012-07-27 13:16:00,
2012-07-27 07:21:00,55.0,49.6,29.93,South,179,0.0,4.0,82,0.00,,---,0.00,VWS V14.01,2012-07-27 13:21:00,
2012-07-27 07:26:00,55.4,50.0,29.94,South,179,2.0,5.0,82,0.00,,---,0.00,VWS V14.01,2012-07-27 13:26:00,
2012-07-27 07:32:00,55.9,50.2,29.93,South,179,0.0,5.0,81,0.00,,---,0.00,VWS V14.01,2012-07-27 13:32:00,
2012-07-27 07:37:00,56.2,49.8,29.94,South,179,0.0,3.0,79,0.00,,---,0.00,VWS V14.01,2012-07-27 13:37:00,
2012-07-27 07:42:00,56.6,50.2,29.92,South,179,0.0,0.0,79,0.00,,---,0.00,VWS V14.01,2012-07-27 13:42:00,
2012-07-27 07:47:00,57.2,50.4,29.92,South,179,0.0,1.0,78,0.00,,---,0.00,VWS V14.01,2012-07-27 13:47:00,
2012-07-27 07:52:00,57.7,50.9,29.93,South,179,0.0,0.0,78,0.00,,---,0.00,VWS V14.01,2012-07-27 13:52:00,
2012-07-27 07:57:00,58.3,50.8,29.93,South,179,0.0,0.0,76,0.00,,---,0.00,VWS V14.01,2012-07-27 13:57:00,
2012-07-27 08:02:00,58.9,51.0,29.91,South,179,0.0,0.0,75,0.00,,---,0.00,VWS V14.01,2012-07-27 14:02:00,
2012-07-27 08:07:00,59.2,50.6,29.93,South,179,0.0,0.0,73,0.00,,---,0.00,VWS V14.01,2012-07-27 14:07:00,
2012-07-27 08:12:00,60.3,51.2,29.93,South,179,0.0,0.0,72,0.00,,---,0.00,VWS V14.01,2012-07-27 14:12:00,
2012-07-27 08:17:00,61.9,50.8,29.92,South,179,0.0,0.0,67,0.00,,---,0.00,VWS V14.01,2012-07-27 14:17:00,
2012-07-27 08:22:00,63.8,50.1,29.90,South,179,0.0,0.0,61,0.00,,---,0.00,VWS V14.01,2012-07-27 14:22:00,
2012-07-27 08:27:00,65.7,51.0,29.89,South,179,0.0,1.0,59,0.00,,---,0.00,VWS V14.01,2012-07-27 14:27:00,
2012-07-27 08:32:00,67.8,49.5,29.87,South,179,0.0,0.0,52,0.00,,---,0.00,VWS V14.01,2012-07-27 14:32:00,
2012-07-27 08:37:00,68.0,49.2,29.87,South,179,0.0,0.0,51,0.00,,---,0.00,VWS V14.01,2012-07-27 14:37:00,
2012-07-27 08:42:00,68.3,49.5,29.87,South,179,0.0,0.0,51,0.00,,---,0.00,VWS V14.01,2012-07-27 14:42:00,
2012-07-27 08:47:00,68.5,49.2,29.85,South,179,0.0,1.0,50,0.00,,---,0.00,VWS V14.01,2012-07-27 14:47:00,
2012-07-27 08:52:00,68.5,49.2,29.85,South,179,0.0,1.0,50,0.00,,---,0.00,VWS V14.01,2012-07-27 14:52:00,
2012-07-27 08:57:00,68.6,50.3,29.85,South,179,2.0,5.0,52,0.00,,---,0.00,VWS V14.01,2012-07-27 14:57:00,
2012-07-27 09:02:00,67.6,49.4,29.86,South,179,1.0,5.0,52,0.00,,---,0.00,VWS V14.01,2012-07-27 15:02:00,
2012-07-27 09:07:00,67.0,49.3,29.90,South,179,0.0,4.0,53,0.00,,---,0.00,VWS V14.01,2012-07-27 15:07:00,
2012-07-27 09:12:00,67.1,49.4,29.89,South,179,0.0,6.0,53,0.00,,---,0.00,VWS V14.01,2012-07-27 15:12:00,
2012-07-27 09:17:00,67.7,49.5,29.88,South,179,0.0,4.0,52,0.00,,---,0.00,VWS V14.01,2012-07-27 15:17:00,
2012-07-27 09:22:00,67.9,48.6,29.88,South,179,0.0,2.0,50,0.00,,---,0.00,VWS V14.01,2012-07-27 15:22:00,
2012-07-27 09:27:00,67.7,49.5,29.88,South,179,0.0,5.0,52,0.00,,---,0.00,VWS V14.01,2012-07-27 15:27:00,
2012-07-27 09:32:00,67.7,48.4,29.88,South,179,1.0,2.0,50,0.00,,---,0.00,VWS V14.01,2012-07-27 15:32:00,
2012-07-27 09:37:00,67.9,49.1,29.88,South,179,0.0,1.0,51,0.00,,---,0.00,VWS V14.01,2012-07-27 15:37:00,
2012-07-27 09:42:00,67.9,49.1,29.88,South,179,1.0,4.0,51,0.00,,---,0.00,VWS V14.01,2012-07-27 15:42:00,
2012-07-27 09:47:00,68.1,49.3,29.88,South,179,1.0,4.0,51,0.00,,---,0.00,VWS V14.01,2012-07-27 15:47:00,
2012-07-27 09:52:00,68.5,49.7,29.88,South,179,1.0,5.0,51,0.00,,---,0.00,VWS V14.01,2012-07-27 15:52:00,
2012-07-27 09:57:00,69.7,49.2,29.86,South,179,1.0,5.0,48,0.00,,---,0.00,VWS V14.01,2012-07-27 15:57:00,
2012-07-27 10:02:00,71.2,50.0,29.86,South,179,0.0,0.0,47,0.00,,---,0.00,VWS V14.01,2012-07-27 16:02:00,
2012-07-27 10:07:00,73.0,49.8,29.83,South,179,0.0,1.0,44,0.00,,---,0.00,VWS V14.01,2012-07-27 16:07:00,
2012-07-27 10:12:00,73.7,49.2,29.83,South,179,0.0,2.0,42,0.00,,---,0.00,VWS V14.01,2012-07-27 16:12:00,
2012-07-27 10:18:00,74.7,48.8,29.81,South,179,0.0,1.0,40,0.00,,---,0.00,VWS V14.01,2012-07-27 16:18:00,
2012-07-27 10:23:00,75.1,49.8,29.81,South,179,0.0,0.0,41,0.00,,---,0.00,VWS V14.01,2012-07-27 16:23:00,
2012-07-27 10:28:00,74.5,49.9,29.81,South,179,0.0,2.0,42,0.00,,---,0.00,VWS V14.01,2012-07-27 16:28:00,
2012-07-27 10:33:00,73.2,48.8,29.82,South,179,4.0,4.0,42,0.00,,---,0.00,VWS V14.01,2012-07-27 16:33:00,
2012-07-27 10:38:00,72.2,49.1,29.84,South,179,4.0,5.0,44,0.00,,---,0.00,VWS V14.01,2012-07-27 16:38:00,
2012-07-27 10:43:00,72.3,49.2,29.84,South,179,2.0,3.0,44,0.00,,---,0.00,VWS V14.01,2012-07-27 16:43:00,
2012-07-27 10:48:00,73.5,48.4,29.83,South,179,1.0,5.0,41,0.00,,---,0.00,VWS V14.01,2012-07-27 16:48:00,
2012-07-27 10:53:00,74.3,49.1,29.83,South,179,1.0,2.0,41,0.00,,---,0.00,VWS V14.01,2012-07-27 16:53:00,
2012-07-27 10:58:00,74.9,49.0,29.80,South,179,0.0,0.0,40,0.00,,---,0.00,VWS V14.01,2012-07-27 16:58:00,
2012-07-27 11:03:00,76.0,47.9,29.81,South,179,1.0,1.0,37,0.00,,---,0.00,VWS V14.01,2012-07-27 17:03:00,
2012-07-27 11:08:00,76.5,47.6,29.81,South,179,0.0,0.0,36,0.00,,---,0.00,VWS V14.01,2012-07-27 17:08:00,
2012-07-27 11:13:00,76.7,48.5,29.81,South,179,0.0,0.0,37,0.00,,---,0.00,VWS V14.01,2012-07-27 17:13:00,
2012-07-27 11:18:00,77.5,48.5,29.79,South,179,2.0,2.0,36,0.00,,---,0.00,VWS V14.01,2012-07-27 17:18:00,
2012-07-27 11:23:00,78.0,48.9,29.79,South,179,2.0,2.0,36,0.00,,---,0.00,VWS V14.01,2012-07-27 17:23:00,
2012-07-27 11:28:00,78.5,49.3,29.79,South,179,1.0,2.0,36,0.00,,---,0.00,VWS V14.01,2012-07-27 17:28:00,
2012-07-27 11:33:00,77.4,49.8,29.80,South,182,1.0,4.0,38,0.00,,---,0.00,VWS V14.01,2012-07-27 17:33:00,
2012-07-27 11:38:00,77.0,49.5,29.80,South,182,1.0,1.0,38,0.00,,---,0.00,VWS V14.01,2012-07-27 17:38:00,
2012-07-27 11:43:00,77.0,48.8,29.79,South,191,2.0,2.0,37,0.00,,---,0.00,VWS V14.01,2012-07-27 17:43:00,
2012-07-27 11:48:00,76.9,49.4,29.79,SSW,201,6.0,6.0,38,0.00,,---,0.00,VWS V14.01,2012-07-27 17:48:00,
2012-07-27 11:53:00,77.0,49.5,29.79,SSW,200,1.0,5.0,38,0.00,,---,0.00,VWS V14.01,2012-07-27 17:53:00,
2012-07-27 11:58:00,77.3,49.0,29.79,SSW,201,6.0,6.0,37,0.00,,---,0.00,VWS V14.01,2012-07-27 17:58:00,
2012-07-27 12:03:00,77.8,49.5,29.79,SSW,205,0.0,9.0,37,0.00,,---,0.00,VWS V14.01,2012-07-27 18:03:00,
2012-07-27 12:08:00,77.6,50.0,29.79,SSW,205,6.0,6.0,38,0.00,,---,0.00,VWS V14.01,2012-07-27 18:08:00,
2012-07-27 12:13:00,77.8,48.7,29.78,SSW,205,2.0,6.0,36,0.00,,---,0.00,VWS V14.01,2012-07-27 18:13:00,
2012-07-27 12:18:00,77.5,49.2,29.78,SSW,206,3.0,5.0,37,0.00,,---,0.00,VWS V14.01,2012-07-27 18:18:00,
2012-07-27 12:23:00,76.9,49.4,29.80,SSW,205,5.0,5.0,38,0.00,,---,0.00,VWS V14.01,2012-07-27 18:23:00,
2012-07-27 12:28:00,76.6,49.8,29.80,SSW,210,9.0,12.0,39,0.00,,---,0.00,VWS V14.01,2012-07-27 18:28:00,
2012-07-27 12:33:00,76.1,47.2,29.81,SSW,203,5.0,8.0,36,0.00,,---,0.00,VWS V14.01,2012-07-27 18:33:00,
2012-07-27 12:38:00,76.3,46.7,29.80,SSW,202,0.0,1.0,35,0.00,,---,0.00,VWS V14.01,2012-07-27 18:38:00,
2012-07-27 12:43:00,77.2,46.7,29.80,SSW,202,4.0,7.0,34,0.00,,---,0.00,VWS V14.01,2012-07-27 18:43:00,
2012-07-27 12:48:00,78.2,48.3,29.78,SSW,202,0.0,4.0,35,0.00,,---,0.00,VWS V14.01,2012-07-27 18:48:00,
2012-07-27 12:53:00,78.7,47.2,29.78,SSW,202,5.0,9.0,33,0.00,,---,0.00,VWS V14.01,2012-07-27 18:53:00,
2012-07-27 12:58:00,79.7,48.9,29.75,SSW,206,8.0,8.0,34,0.00,,---,0.00,VWS V14.01,2012-07-27 18:58:00,
2012-07-27 13:03:00,78.7,47.2,29.78,SW,234,5.0,5.0,33,0.00,,---,0.00,VWS V14.01,2012-07-27 19:03:00,
2012-07-27 13:08:00,79.3,47.7,29.77,SW,234,8.0,8.0,33,0.00,,---,0.00,VWS V14.01,2012-07-27 19:08:00,
2012-07-27 13:13:00,79.2,47.7,29.76,SW,234,1.0,1.0,33,0.00,,---,0.00,VWS V14.01,2012-07-27 19:13:00,
2012-07-27 13:18:00,79.8,49.0,29.75,SW,233,0.0,2.0,34,0.00,,---,0.00,VWS V14.01,2012-07-27 19:18:00,
2012-07-27 13:23:00,80.9,48.3,29.75,SW,223,1.0,1.0,32,0.00,,---,0.00,VWS V14.01,2012-07-27 19:23:00,
2012-07-27 13:28:00,80.9,49.1,29.74,SSW,198,10.0,12.0,33,0.00,,---,0.00,VWS V14.01,2012-07-27 19:28:00,
2012-07-27 13:33:00,79.6,48.0,29.74,SSW,194,7.0,13.0,33,0.00,,---,0.00,VWS V14.01,2012-07-27 19:33:00,
2012-07-27 13:38:00,79.3,47.7,29.75,SSW,195,8.0,9.0,33,0.00,,---,0.00,VWS V14.01,2012-07-27 19:38:00,
2012-07-27 13:43:00,78.3,47.7,29.76,SSW,202,0.0,5.0,34,0.00,,---,0.00,VWS V14.01,2012-07-27 19:43:00,
2012-07-27 13:48:00,78.1,48.2,29.75,SSW,199,7.0,9.0,35,0.00,,---,0.00,VWS V14.01,2012-07-27 19:48:00,
2012-07-27 13:53:00,77.5,48.5,29.75,South,190,12.0,15.0,36,0.00,,---,0.00,VWS V14.01,2012-07-27 19:53:00,
2012-07-27 13:58:00,77.0,48.0,29.77,SSW,196,0.0,10.0,36,0.00,,---,0.00,VWS V14.01,2012-07-27 19:58:00,
2012-07-27 14:03:00,76.7,47.0,29.78,SSW,195,2.0,8.0,35,0.00,,---,0.00,VWS V14.01,2012-07-27 20:03:00,
2012-07-27 14:08:00,75.0,50.4,29.79,SSW,196,5.0,14.0,42,0.00,,---,0.00,VWS V14.01,2012-07-27 20:08:00,
2012-07-27 14:13:00,72.6,51.8,29.80,WSW,254,1.0,4.0,48,0.00,,---,0.00,VWS V14.01,2012-07-27 20:13:00,
2012-07-27 14:18:00,71.0,47.4,29.83,SW,235,19.0,19.0,43,0.00,,---,0.00,VWS V14.01,2012-07-27 20:18:00,
2012-07-27 14:23:00,70.6,48.2,29.84,WSW,249,5.0,8.0,45,0.00,,---,0.00,VWS V14.01,2012-07-27 20:23:00,
2012-07-27 14:29:00,69.2,51.4,29.85,SE,138,0.0,6.0,53,0.00,,---,0.00,VWS V14.01,2012-07-27 20:29:00,
2012-07-27 14:34:00,67.4,49.2,29.86,South,188,5.0,10.0,52,0.00,,---,0.00,VWS V14.01,2012-07-27 20:34:00,
2012-07-27 14:39:00,66.1,50.4,29.87,South,191,0.0,4.0,57,0.00,,---,0.00,VWS V14.01,2012-07-27 20:39:00,
2012-07-27 14:44:00,67.3,49.6,29.86,South,187,4.0,8.0,53,0.00,,---,0.00,VWS V14.01,2012-07-27 20:44:00,
2012-07-27 14:49:00,66.3,51.6,29.89,SSW,209,10.0,10.0,59,0.00,,---,0.00,VWS V14.01,2012-07-27 20:49:00,
2012-07-27 14:54:00,63.9,52.3,29.89,South,186,7.0,7.0,66,0.00,,---,0.00,VWS V14.01,2012-07-27 20:54:00,
2012-07-27 14:59:00,62.1,51.8,29.90,SE,135,2.0,6.0,69,0.00,,---,0.00,VWS V14.01,2012-07-27 20:59:00,
2012-07-27 15:04:00,60.9,51.5,29.93,SE,132,0.0,0.0,71,0.00,,---,0.00,VWS V14.01,2012-07-27 21:04:00,
2012-07-27 15:09:00,60.8,51.3,29.93,SE,129,1.0,6.0,71,0.01,,---,0.01,VWS V14.01,2012-07-27 21:09:00,
2012-07-27 15:14:00,61.1,51.6,29.93,SE,128,0.0,2.0,71,0.01,,---,0.01,VWS V14.01,2012-07-27 21:14:00,
2012-07-27 15:19:00,61.4,51.9,29.93,SE,130,0.0,2.0,71,0.01,,---,0.01,VWS V14.01,2012-07-27 21:19:00,
2012-07-27 15:24:00,62.0,51.7,29.94,South,179,11.0,13.0,69,0.01,,---,0.01,VWS V14.01,2012-07-27 21:24:00,
2012-07-27 15:29:00,62.1,50.2,29.96,WSW,246,12.0,18.0,65,0.02,,---,0.02,VWS V14.01,2012-07-27 21:29:00,
2012-07-27 15:34:00,61.9,50.4,29.97,WSW,250,0.0,5.0,66,0.02,,---,0.02,VWS V14.01,2012-07-27 21:34:00,
2012-07-27 15:39:00,61.4,50.4,29.96,WSW,250,0.0,2.0,67,0.02,,---,0.02,VWS V14.01,2012-07-27 21:39:00,
2012-07-27 15:44:00,60.7,51.2,29.95,WSW,250,0.0,1.0,71,0.02,,---,0.02,VWS V14.01,2012-07-27 21:44:00,
2012-07-27 15:49:00,60.5,52.2,29.94,WSW,250,0.0,1.0,74,0.02,,---,0.02,VWS V14.01,2012-07-27 21:49:00,
2012-07-27 15:54:00,60.6,52.6,29.94,WSW,250,0.0,1.0,75,0.02,,---,0.02,VWS V14.01,2012-07-27 21:54:00,
2012-07-27 15:59:00,60.7,53.8,29.92,WSW,250,0.0,1.0,78,0.03,,---,0.03,VWS V14.01,2012-07-27 21:59:00,
2012-07-27 16:04:00,61.0,54.1,29.95,WSW,250,0.0,2.0,78,0.03,,---,0.03,VWS V14.01,2012-07-27 22:04:00,
2012-07-27 16:10:00,61.4,54.1,29.95,WSW,250,0.0,0.0,77,0.02,,---,0.03,VWS V14.01,2012-07-27 22:10:00,
2012-07-27 16:15:00,62.1,54.5,29.95,WSW,250,0.0,0.0,76,0.03,,---,0.04,VWS V14.01,2012-07-27 22:15:00,
2012-07-27 16:20:00,63.1,53.9,29.93,WSW,250,0.0,0.0,72,0.03,,---,0.04,VWS V14.01,2012-07-27 22:20:00,
2012-07-27 16:25:00,64.3,54.7,29.94,WSW,250,3.0,3.0,71,0.03,,---,0.04,VWS V14.01,2012-07-27 22:25:00,
2012-07-27 16:30:00,65.8,55.4,29.92,WSW,250,4.0,6.0,69,0.02,,---,0.04,VWS V14.01,2012-07-27 22:30:00,
2012-07-27 16:35:00,66.1,54.4,29.92,WSW,252,0.0,7.0,66,0.02,,---,0.04,VWS V14.01,2012-07-27 22:35:00,
2012-07-27 16:40:00,66.1,54.4,29.93,WSW,252,0.0,7.0,66,0.02,,---,0.04,VWS V14.01,2012-07-27 22:40:00,
2012-07-27 16:45:00,66.3,53.3,29.93,WSW,252,0.0,6.0,63,0.02,,---,0.04,VWS V14.01,2012-07-27 22:45:00,
2012-07-27 16:50:00,67.1,51.4,29.91,SSW,207,7.0,12.0,57,0.02,,---,0.04,VWS V14.01,2012-07-27 22:50:00,
2012-07-27 16:55:00,67.5,49.8,29.92,West,268,5.0,10.0,53,0.02,,---,0.04,VWS V14.01,2012-07-27 22:55:00,
2012-07-27 17:00:00,67.8,50.1,29.92,West,261,7.0,12.0,53,0.02,,---,0.05,VWS V14.01,2012-07-27 23:00:00,
2012-07-27 17:05:00,67.9,49.7,29.92,West,267,15.0,19.0,52,0.02,,---,0.05,VWS V14.01,2012-07-27 23:05:00,
2012-07-27 17:10:00,68.0,48.7,29.92,WSW,249,7.0,12.0,50,0.02,,---,0.05,VWS V14.01,2012-07-27 23:10:00,
2012-07-27 17:15:00,67.9,49.7,29.92,WSW,249,8.0,12.0,52,0.01,,---,0.05,VWS V14.01,2012-07-27 23:15:00,
2012-07-27 17:20:00,67.5,53.1,29.92,WNW,295,5.0,10.0,60,0.01,,---,0.05,VWS V14.01,2012-07-27 23:20:00,
2012-07-27 17:25:00,66.5,53.5,29.94,WNW,292,7.0,9.0,63,0.01,,---,0.05,VWS V14.01,2012-07-27 23:25:00,
2012-07-27 17:30:00,65.9,54.7,29.93,NW,325,5.0,7.0,67,0.01,,---,0.05,VWS V14.01,2012-07-27 23:30:00,
2012-07-27 17:35:00,65.2,54.8,29.94,North,355,7.0,9.0,69,0.02,,---,0.06,VWS V14.01,2012-07-27 23:35:00,
2012-07-27 17:40:00,64.5,54.5,29.94,North,355,1.0,11.0,70,0.02,,---,0.06,VWS V14.01,2012-07-27 23:40:00,
2012-07-27 17:45:00,64.4,54.4,29.94,NW,317,8.0,9.0,70,0.02,,---,0.06,VWS V14.01,2012-07-27 23:45:00,
2012-07-27 17:50:00,64.5,54.5,29.93,NE,41,5.0,7.0,70,0.03,,---,0.07,VWS V14.01,2012-07-27 23:50:00,
2012-07-27 17:55:00,64.7,52.7,29.93,NE,53,6.0,7.0,65,0.03,,---,0.07,VWS V14.01,2012-07-27 23:55:00,
2012-07-27 18:00:00,64.9,53.3,29.93,NE,52,8.0,9.0,66,0.02,,---,0.07,VWS V14.01,2012-07-28 00:00:00,
2012-07-27 18:05:00,65.0,53.0,29.91,NE,48,4.0,8.0,65,0.02,,---,0.07,VWS V14.01,2012-07-28 00:05:00,
2012-07-27 18:10:00,65.0,53.0,29.91,NE,48,0.0,6.0,65,0.02,,---,0.07,VWS V14.01,2012-07-28 00:10:00,
2012-07-27 18:15:00,65.1,53.1,29.91,NE,48,0.0,1.0,65,0.02,,---,0.07,VWS V14.01,2012-07-28 00:15:00,
2012-07-27 18:20:00,65.2,53.6,29.91,NE,49,0.0,5.0,66,0.03,,---,0.08,VWS V14.01,2012-07-28 00:20:00,
2012-07-27 18:25:00,65.2,54.0,29.91,NE,49,0.0,4.0,67,0.03,,---,0.08,VWS V14.01,2012-07-28 00:25:00,
2012-07-27 18:30:00,65.2,54.0,29.91,NE,49,1.0,5.0,67,0.04,,---,0.09,VWS V14.01,2012-07-28 00:30:00,
2012-07-27 18:35:00,64.9,54.1,29.91,NE,48,2.0,6.0,68,0.03,,---,0.09,VWS V14.01,2012-07-28 00:35:00,
2012-07-27 18:40:00,64.6,54.2,29.90,NE,49,0.0,3.0,69,0.03,,---,0.09,VWS V14.01,2012-07-28 00:40:00,
2012-07-27 18:45:00,64.5,53.3,29.90,NE,48,1.0,4.0,67,0.03,,---,0.09,VWS V14.01,2012-07-28 00:45:00,
2012-07-27 18:50:00,64.5,53.3,29.90,NE,49,0.0,5.0,67,0.02,,---,0.09,VWS V14.01,2012-07-28 00:50:00,
2012-07-27 18:55:00,64.5,54.1,29.91,NE,49,2.0,5.0,69,0.03,,---,0.10,VWS V14.01,2012-07-28 00:55:00,
2012-07-27 19:00:00,64.4,53.6,29.92,NE,49,1.0,5.0,68,0.03,,---,0.10,VWS V14.01,2012-07-28 01:00:00,
2012-07-27 19:05:00,64.3,53.5,29.89,NE,49,1.0,5.0,68,0.04,,---,0.11,VWS V14.01,2012-07-28 01:05:00,
2012-07-27 19:11:00,64.3,53.1,29.89,NE,48,0.0,5.0,67,0.04,,---,0.11,VWS V14.01,2012-07-28 01:11:00,
2012-07-27 19:16:00,64.3,52.3,29.90,NE,49,0.0,1.0,65,0.04,,---,0.11,VWS V14.01,2012-07-28 01:16:00,
2012-07-27 19:21:00,64.3,52.7,29.89,NE,48,0.0,0.0,66,0.03,,---,0.11,VWS V14.01,2012-07-28 01:21:00,
2012-07-27 19:26:00,64.3,53.1,29.89,NE,49,0.0,2.0,67,0.04,,---,0.12,VWS V14.01,2012-07-28 01:26:00,
2012-07-27 19:31:00,64.7,54.7,29.88,NE,48,0.0,5.0,70,0.04,,---,0.12,VWS V14.01,2012-07-28 01:31:00,
2012-07-27 19:36:00,64.6,54.6,29.88,NE,48,4.0,4.0,70,0.04,,---,0.13,VWS V14.01,2012-07-28 01:36:00,
2012-07-27 19:41:00,64.4,54.8,29.90,NE,48,0.0,0.0,71,0.04,,---,0.13,VWS V14.01,2012-07-28 01:41:00,
2012-07-27 19:46:00,64.1,53.7,29.90,NE,48,0.0,0.0,69,0.04,,---,0.13,VWS V14.01,2012-07-28 01:46:00,
2012-07-27 19:51:00,63.9,54.3,29.90,NE,48,3.0,5.0,71,0.04,,---,0.13,VWS V14.01,2012-07-28 01:51:00,
2012-07-27 19:56:00,63.6,54.8,29.90,NE,48,0.0,2.0,73,0.04,,---,0.14,VWS V14.01,2012-07-28 01:56:00,
2012-07-27 20:01:00,63.4,54.6,29.90,NE,48,0.0,1.0,73,0.04,,---,0.14,VWS V14.01,2012-07-28 02:01:00,
2012-07-27 20:06:00,63.2,54.8,29.84,NE,48,0.0,4.0,74,0.04,,---,0.15,VWS V14.01,2012-07-28 02:06:00,
2012-07-27 20:12:00,63.0,54.6,29.84,NE,48,0.0,3.0,74,0.04,,---,0.15,VWS V14.01,2012-07-28 02:12:00,
2012-07-27 20:17:00,62.8,54.4,29.83,NE,48,0.0,3.0,74,0.04,,---,0.15,VWS V14.01,2012-07-28 02:17:00,
2012-07-27 20:22:00,62.6,54.2,29.84,NE,48,0.0,1.0,74,0.04,,---,0.15,VWS V14.01,2012-07-28 02:22:00,
2012-07-27 20:27:00,62.5,54.5,29.84,NE,48,0.0,0.0,75,0.03,,---,0.15,VWS V14.01,2012-07-28 02:27:00,
2012-07-27 20:32:00,62.5,54.8,29.84,NE,48,0.0,0.0,76,0.04,,---,0.16,VWS V14.01,2012-07-28 02:32:00,
2012-07-27 20:37:00,62.4,54.8,29.84,NE,48,0.0,0.0,76,0.03,,---,0.16,VWS V14.01,2012-07-28 02:37:00,
2012-07-27 20:42:00,62.4,55.1,29.84,NE,48,0.0,0.0,77,0.03,,---,0.16,VWS V14.01,2012-07-28 02:42:00,
2012-07-27 20:47:00,62.3,55.0,29.84,NE,48,0.0,0.0,77,0.04,,---,0.17,VWS V14.01,2012-07-28 02:47:00,
2012-07-27 20:52:00,62.2,54.5,29.84,NE,48,0.0,0.0,76,0.04,,---,0.17,VWS V14.01,2012-07-28 02:52:00,
2012-07-27 20:57:00,62.2,54.9,29.85,NE,48,0.0,0.0,77,0.04,,---,0.17,VWS V14.01,2012-07-28 02:57:00,
2012-07-27 21:02:00,62.2,54.5,29.85,NE,48,0.0,0.0,76,0.03,,---,0.17,VWS V14.01,2012-07-28 03:02:00,
2012-07-27 21:07:00,62.2,54.5,29.84,NE,48,0.0,0.0,76,0.03,,---,0.17,VWS V14.01,2012-07-28 03:07:00,
2012-07-27 21:12:00,62.2,54.9,29.84,NE,48,0.0,0.0,77,0.02,,---,0.17,VWS V14.01,2012-07-28 03:12:00,
2012-07-27 21:17:00,62.2,54.9,29.84,NE,48,0.0,1.0,77,0.03,,---,0.18,VWS V14.01,2012-07-28 03:17:00,
2012-07-27 21:22:00,62.3,55.0,29.85,NE,48,0.0,1.0,77,0.03,,---,0.18,VWS V14.01,2012-07-28 03:22:00,
2012-07-27 21:27:00,62.3,55.7,29.84,NE,48,0.0,1.0,79,0.03,,---,0.18,VWS V14.01,2012-07-28 03:27:00,
2012-07-27 21:32:00,61.9,55.3,29.85,NE,48,0.0,4.0,79,0.04,,---,0.19,VWS V14.01,2012-07-28 03:32:00,